Wind_Speed
23 22 22 20 17 16 15 13 13 14 15 17 18 19 20 20 20 20 20 21 21 21 22 22 23 24 25 26 26 27 28 28 29 29 29 30 31 32 33 34 34 34 33 32 32 31 32 32 32 31 29 28 29 29 29 29 29 29 28 28 30 30 27 23 16 12 13 12 12 16 18 19 23 26 27 28 28 29 29 28 29 29 27 24 22
23 22 23 22 20 17 16 15 14 13 14 15 18 19 20 20 20 20 21 21 21 22 23 23 23 23 24 25 25 26 26 27 28 29 30 30 31 32 32 32 33 33 32 32 33 32 32 32 32 31 30 30 30 29 29 29 29 30 30 29 30 30 28 27 23 17 16 16 15 16 17 19 22 25 27 28 28 27 28 27 28 28 26 24 22
23 23 22 22 22 20 17 15 14 14 14 15 16 18 19 20 20 20 21 21 21 21 22 23 23 24 24 25 25 26 26 27 27 28 30 30 31 31 32 32 32 32 32 32 32 31 31 31 31 31 30 29 30 29 29 29 29 30 31 31 31 30 29 28 26 22 18 17 18 19 20 21 23 24 26 27 27 27 27 27 27 27 25 23 22
22 23 22 21 21 20 19 17 15 14 14 15 16 16 17 18 19 20 21 22 22 22 22 22 23 24 25 25 26 26 27 27 28 29 29 30 30 31 31 32 32 32 32 32 31 31 31 30 30 29 28 28 29 29 29 29 29 29 29 29 30 30 29 29 28 25 21 18 17 20 22 23 24 24 25 27 27 27 27 26 25 24 23 23 22
21 22 21 22 20 19 19 18 17 16 15 15 15 16 16 17 17 18 19 20 22 22 24 24 24 25 26 26 27 27 27 28 28 29 30 29 30 30 30 31 32 32 31 31 31 31 31 31 30 28 28 28 28 28 28 29 29 30 30 29 28 28 28 28 29 27 25 21 17 17 20 22 22 23 25 26 26 26 26 25 24 23 23 23 23
21 20 19 20 19 18 18 18 18 17 17 16 15 15 15 15 16 17 17 19 19 20 22 24 26 27 28 28 28 28 28 28 29 30 30 30 30 30 30 31 31 32 32 31 31 31 31 31 30 29 29 29 29 28 28 28 28 30 30 30 29 28 28 28 28 28 27 26 21 17 20 22 21 21 23 25 25 24 24 23 22 22 22 23 25
21 19 18 18 17 17 18 18 17 17 18 18 17 17 16 15 15 15 15 17 18 19 21 22 24 26 28 29 29 29 29 29 30 30 30 30 30 30 30 31 31 31 31 32 31 31 31 31 30 29 29 29 29 28 27 27 28 29 29 29 28 28 27 26 26 27 27 25 22 19 20 22 21 20 21 22 22 21 21 20 21 22 22 23 24
20 19 18 17 16 17 18 17 17 17 18 19 19 19 18 18 18 17 16 16 17 18 19 21 22 24 26 27 28 28 29 30 31 31 30 29 29 30 30 30 30 30 30 31 31 31 31 30 30 29 29 29 29 29 28 27 27 27 27 27 27 27 26 25 25 26 25 24 22 20 20 21 21 19 19 19 19 19 20 20 20 20 20 21 21
20 19 18 17 17 18 18 18 19 19 20 20 21 20 20 20 20 19 18 18 18 18 18 19 21 22 23 25 26 27 29 30 30 30 30 29 29 30 30 30 29 29 29 29 30 30 30 30 30 29 29 29 29 28 29 28 27 26 25 25 26 26 25 25 24 24 24 23 21 20 19 19 20 21 20 21 22 20 18 18 18 18 17 18 20
21 20 19 19 19 19 18 19 20 21 20 21 22 22 22 22 22 21 20 19 19 19 19 19 20 21 22 23 25 26 28 29 29 29 29 29 29 29 29 29 29 28 28 28 28 29 29 29 29 29 29 28 28 28 28 28 28 27 26 25 25 26 26 25 25 25 24 22 22 21 19 18 21 24 24 24 23 19 15 15 16 15 13 14 17
21 21 20 20 20 19 20 22 23 23 22 22 22 23 23 23 23 23 22 21 20 19 19 19 20 20 21 22 23 25 27 27 27 27 27 27 28 28 28 28 28 28 28 28 28 27 27 27 27 27 27 26 27 28 28 28 28 28 27 27 26 27 28 28 27 26 25 23 23 23 21 19 21 24 24 21 19 17 16 16 15 14 11 10 11
21 21 21 20 19 20 23 26 25 24 24 24 25 24 23 22 23 23 23 23 22 21 20 20 20 20 20 21 22 24 25 26 26 26 26 26 26 27 28 27 27 27 27 28 28 26 24 24 24 25 25 25 26 26 26 26 27 27 27 28 28 29 30 30 29 28 27 25 23 23 23 20 20 22 22 20 19 18 17 16 15 14 13 11 11
21 21 20 19 20 23 26 26 26 26 25 25 25 24 23 22 23 24 24 24 23 22 22 21 21 21 21 21 22 23 23 24 24 24 25 25 24 24 26 27 26 27 27 27 27 26 24 22 22 23 24 24 24 24 23 24 25 26 26 27 29 30 31 31 30 29 29 28 24 23 24 22 20 21 23 22 21 20 18 16 15 14 14 15 16
22 20 19 20 23 26 25 24 25 25 25 26 25 25 25 25 26 26 26 25 23 22 22 21 20 20 21 21 21 22 23 23 22 22 23 23 22 22 24 25 25 26 26 26 26 25 25 23 22 22 23 23 23 22 21 21 22 24 25 26 28 29 30 30 31 31 30 28 25 23 22 23 22 21 21 21 20 19 17 16 14 14 15 16 17
20 19 21 25 26 25 24 25 27 27 28 29 28 27 27 27 27 26 25 23 22 22 21 20 20 20 21 20 20 21 22 21 21 21 21 21 20 20 23 24 25 24 25 25 24 24 24 24 23 22 22 22 21 20 19 19 20 22 24 25 26 28 29 30 31 31 29 28 26 23 20 21 21 19 19 18 17 16 14 13 13 13 14 15 17
18 21 25 26 24 23 26 29 30 31 31 30 28 27 26 25 25 24 23 22 21 20 19 19 20 21 21 20 20 21 21 20 20 20 20 20 18 19 22 23 24 24 24 23 23 23 22 22 22 22 22 22 20 19 18 18 19 21 23 24 25 26 28 29 28 29 28 27 26 24 22 20 18 17 17 15 14 13 12 11 12 12 11 13 16
20 25 27 25 24 26 30 30 30 29 29 28 27 27 25 24 24 23 22 21 20 18 16 17 20 21 21 20 20 21 21 20 19 19 19 18 17 18 21 22 23 24 24 23 23 22 22 22 22 22 22 21 21 19 18 18 19 21 23 24 24 25 25 25 25 27 28 28 26 24 21 19 17 16 15 14 13 13 12 13 13 12 10 9 10
23 26 27 26 28 30 30 28 27 27 26 26 27 26 25 25 24 23 23 22 20 17 16 17 20 20 20 20 19 20 21 20 18 18 18 18 17 19 21 21 21 22 23 22 22 22 22 22 22 22 22 21 21 19 19 19 21 22 23 24 24 23 23 23 25 26 27 27 26 23 20 19 18 16 15 14 14 15 16 16 14 12 12 11 9
25 28 28 29 30 30 28 27 26 26 25 25 25 25 25 25 24 24 24 23 19 17 16 18 20 20 20 20 19 19 20 19 18 17 16 16 17 19 21 21 20 20 20 20 20 21 22 21 22 22 21 21 20 19 19 20 21 22 24 24 24 25 24 24 25 26 26 26 26 25 23 22 20 19 17 16 16 18 19 17 15 14 15 15 13
28 30 31 30 29 28 27 26 25 25 24 24 24 24 23 23 24 24 24 21 18 17 18 19 20 22 21 19 18 18 18 18 18 16 15 15 16 19 21 21 21 20 19 19 19 20 21 21 21 21 21 20 20 19 19 20 21 22 23 24 26 26 24 22 24 25 25 26 26 25 24 23 22 21 20 19 20 21 20 19 19 19 18 18 17
31 32 31 30 29 29 28 26 25 24 24 23 23 23 22 23 23 24 23 21 18 18 19 19 20 21 20 18 17 17 16 16 16 15 15 14 16 19 21 21 21 20 18 19 20 20 20 20 20 19 19 19 19 19 19 20 20 21 22 24 26 24 21 21 22 23 24 24 24 23 22 22 22 21 21 22 22 22 21 21 23 22 21 21 20
32 32 31 30 29 29 28 26 24 24 24 23 23 24 23 23 23 23 23 21 18 17 17 18 19 19 18 16 16 15 15 14 14 14 14 14 15 18 21 21 20 19 18 17 18 18 19 19 18 18 18 17 17 17 18 19 20 21 21 22 21 19 19 20 20 21 22 22 21 21 21 21 20 20 21 22 22 21 21 22 23 22 22 22 22
31 31 31 30 29 28 27 25 24 24 23 23 24 24 24 23 23 22 21 19 17 16 17 17 17 17 16 15 15 14 13 13 12 12 12 12 13 17 20 21 20 18 18 17 16 16 16 16 15 15 15 14 14 16 16 18 20 21 20 19 18 17 18 19 20 20 21 21 20 20 20 20 20 20 20 21 20 20 19 20 20 20 20 21 22
30 30 30 29 28 27 26 25 24 23 23 24 24 23 23 23 22 20 19 19 17 16 16 16 16 16 15 15 14 13 12 11 11 11 10 10 11 14 18 20 19 18 17 16 15 15 14 13 13 13 13 11 12 14 15 17 20 21 19 17 17 17 17 20 21 21 20 20 19 19 19 20 20 19 19 18 17 16 16 16 17 17 18 18 19
29 29 29 28 27 27 25 24 22 22 23 23 23 23 23 22 20 19 18 17 16 15 15 15 15 15 14 14 14 13 11 11 11 10 10 9 9 11 14 17 18 17 16 14 13 13 13 12 11 11 10 9 11 13 15 17 19 21 18 16 17 18 19 20 21 21 20 19 19 19 19 19 18 17 16 15 14 15 15 15 15 16 17 18 20
28 27 28 28 26 25 24 22 22 22 22 21 21 22 21 20 20 18 17 15 14 14 15 15 15 14 13 13 13 13 11 11 11 10 10 9 8 9 11 14 16 16 15 14 12 11 10 9 9 8 7 8 12 15 17 18 18 19 17 16 18 20 20 19 20 21 20 19 19 19 17 16 15 15 14 14 14 15 15 15 16 17 18 20 21
27 27 28 27 24 22 22 21 22 22 21 21 21 21 20 20 19 18 16 14 13 14 14 14 14 13 13 12 12 12 11 12 11 11 11 10 9 8 9 12 14 14 14 14 12 11 10 8 7 7 7 9 12 15 17 17 17 18 17 17 18 20 20 19 19 19 19 18 18 17 15 14 14 15 15 15 15 15 15 16 17 19 19 18 19
26 27 26 24 22 21 20 21 22 21 20 21 21 21 21 21 20 18 17 15 14 15 14 14 14 13 13 13 13 12 10 11 11 11 10 10 10 9 8 10 13 14 14 14 13 11 10 9 7 7 9 10 12 14 15 16 17 18 18 18 18 18 19 18 17 17 18 17 16 15 15 15 15 16 15 15 16 15 15 16 17 18 17 15 17
26 25 24 22 22 21 20 21 21 20 20 20 20 20 21 20 20 20 18 15 15 16 15 14 14 14 14 14 13 11 10 9 9 10 10 10 9 9 8 9 11 13 15 16 15 13 11 11 10 10 11 12 12 13 13 14 16 17 17 18 18 17 17 18 18 17 18 17 16 16 16 16 16 15 15 16 16 16 15 15 16 16 16 16 19
25 23 22 21 21 21 21 21 21 21 21 20 20 21 21 19 18 18 18 17 17 15 14 14 13 12 13 13 12 11 11 11 12 11 11 9 7 7 7 7 9 12 15 16 15 14 13 12 12 12 13 12 12 12 13 14 15 16 17 18 19 17 17 19 20 19 18 17 18 18 17 16 16 16 16 16 16 15 15 15 16 17 17 18 20
23 22 22 22 21 21 22 22 21 21 21 20 20 20 21 20 17 15 16 18 17 15 14 14 14 12 10 11 11 10 10 11 12 11 9 7 6 7 7 7 7 10 14 15 14 13 12 12 11 12 12 12 11 11 12 13 14 15 16 18 18 18 18 19 20 19 18 18 18 18 17 17 17 16 16 16 16 15 15 15 16 18 19 19 20
22 23 22 21 21 21 22 21 21 21 21 20 20 20 20 20 18 17 17 17 16 15 14 13 14 14 10 9 10 9 9 10 10 9 7 5 5 5 5 6 6 9 13 15 12 11 11 11 11 11 11 11 11 11 12 14 14 15 16 17 17 18 19 19 19 19 19 19 19 19 19 19 18 17 16 16 16 15 16 16 18 19 19 19 21
22 22 22 21 22 22 21 20 21 21 21 21 21 21 20 19 19 19 20 17 15 14 12 11 13 15 13 9 9 9 9 8 8 7 6 4 4 4 4 5 5 9 13 13 10 10 11 11 11 11 11 11 11 12 13 13 14 15 16 17 18 18 19 19 18 19 19 19 19 19 19 19 18 17 17 17 17 17 17 18 18 18 18 20 21
21 20 20 20 21 21 20 20 20 20 20 21 21 21 21 20 20 20 20 18 16 14 13 11 12 15 15 11 8 9 9 7 7 6 5 3 2 2 3 4 5 10 13 11 8 9 11 10 10 10 11 11 12 14 14 14 14 15 16 17 18 19 19 18 18 19 20 20 20 19 19 18 17 18 18 18 18 18 19 19 19 19 19 20 22
20 19 18 18 19 20 21 21 21 20 20 21 22 21 21 21 21 20 19 18 16 15 14 13 13 15 15 11 8 8 8 7 6 6 4 2 1 2 3 3 6 11 12 9 7 8 10 10 10 10 12 12 12 14 14 14 15 16 17 17 17 17 18 18 19 19 19 20 20 19 19 18 18 18 18 18 17 18 19 20 19 19 20 21 21
20 19 18 18 19 20 21 21 21 20 21 21 21 21 20 20 21 20 20 19 17 16 15 15 14 15 13 10 8 8 7 6 6 5 3 1 1 3 2 2 6 10 9 7 6 7 8 9 10 11 12 12 12 12 13 14 14 16 16 16 16 16 16 17 18 18 18 19 19 19 19 19 19 18 18 18 19 19 19 19 19 19 20 20 20
19 19 19 19 20 21 21 20 20 20 21 20 20 20 20 20 20 20 20 19 18 17 16 16 15 14 12 9 8 8 6 6 5 4 2 1 2 3 1 1 4 8 8 7 6 6 7 8 9 10 11 11 11 11 12 13 13 14 14 14 15 16 15 14 14 15 16 17 18 18 18 18 18 18 18 19 20 20 20 20 20 20 20 20 20
19 18 18 19 20 20 20 19 20 20 19 19 19 19 20 20 19 19 19 19 18 18 17 16 15 14 11 10 9 7 6 5 4 3 2 0 3 3 1 1 2 6 8 8 7 6 6 7 8 8 9 10 11 11 11 12 13 13 13 14 14 14 14 13 12 13 15 16 16 17 17 17 17 17 18 19 20 20 20 19 19 19 19 19 19
20 19 18 18 18 19 19 19 19 19 18 18 19 19 18 19 19 19 18 18 18 18 17 16 15 13 12 12 11 9 7 5 4 3 2 2 3 3 2 2 3 4 7 8 8 7 6 6 7 8 9 9 10 11 11 12 12 13 14 15 14 14 14 14 13 14 14 15 15 16 16 17 17 17 18 19 19 19 19 19 18 18 19 19 20
21 20 19 18 18 18 19 18 18 18 18 19 19 18 17 18 18 19 19 18 18 18 17 17 16 15 13 13 12 10 9 8 6 4 4 3 4 4 4 4 4 5 6 7 8 9 8 7 8 9 10 9 10 11 11 12 12 13 14 15 15 16 16 15 15 15 15 15 15 16 16 16 16 16 17 18 18 18 18 18 18 18 18 19 20
21 19 19 19 18 19 18 17 17 18 19 19 18 18 18 18 19 19 18 18 18 18 18 17 17 17 15 14 13 11 9 9 8 6 5 5 5 5 5 5 5 6 6 8 9 9 10 10 9 9 10 10 11 11 12 12 13 14 14 14 14 15 15 15 16 16 16 15 15 16 16 16 15 16 17 17 17 16 17 17 17 17 18 19 19
19 18 19 19 19 19 18 17 18 18 18 18 19 19 19 19 18 18 17 17 17 18 18 18 18 17 15 14 14 12 9 8 7 6 6 6 5 5 6 6 6 7 7 8 9 9 10 11 11 11 11 11 12 12 13 13 14 15 15 15 15 15 15 15 15 15 15 14 14 14 15 15 16 16 16 16 16 16 17 17 17 17 18 18 17
17 17 18 18 18 18 18 17 18 18 18 18 20 21 20 19 17 17 17 17 17 18 18 18 18 17 16 15 14 12 8 7 7 7 6 6 5 6 6 6 7 8 8 9 9 10 10 11 12 11 11 11 12 13 14 15 16 16 16 16 15 15 16 15 15 14 14 14 14 14 14 15 16 16 16 16 16 17 17 17 17 17 17 17 17
16 16 18 18 18 18 17 17 17 18 18 19 19 19 19 18 17 17 16 16 17 17 17 17 18 18 16 16 14 11 8 8 8 8 7 6 5 6 7 7 7 7 8 9 9 10 10 11 11 11 11 11 12 14 15 15 15 16 16 16 16 16 16 16 15 14 13 13 13 14 15 15 15 16 16 16 16 16 16 16 17 16 16 16 17
15 16 18 18 19 18 17 17 17 17 18 19 18 18 18 17 17 17 17 17 17 17 18 18 18 17 16 16 14 12 10 9 9 8 7 6 6 7 7 7 6 7 8 8 8 9 10 10 10 11 12 14 15 15 15 15 15 14 14 15 16 15 15 14 14 13 13 13 13 14 14 14 14 15 15 15 15 16 16 15 15 15 15 16 17
14 15 17 18 19 18 18 17 17 17 18 18 18 18 18 18 18 17 17 17 17 17 18 18 17 16 15 15 14 14 12 10 9 8 8 7 7 7 6 6 6 7 7 7 8 9 10 11 11 12 13 15 15 14 14 14 14 14 14 15 15 14 12 11 12 13 13 13 14 13 13 13 14 13 13 13 13 14 15 14 14 14 15 16 17
14 15 16 17 18 18 18 18 17 18 18 18 18 18 19 18 18 18 18 17 17 17 17 17 16 16 15 14 14 14 13 11 10 9 8 8 7 7 6 6 6 6 6 7 9 10 10 10 11 12 13 14 14 13 13 13 13 13 14 14 14 13 12 11 11 12 12 12 12 13 13 14 14 13 13 13 12 13 14 14 14 15 15 16 17
14 15 15 16 17 18 18 17 18 18 18 18 18 18 19 19 18 18 18 17 17 17 17 17 16 16 15 14 14 14 12 11 11 10 9 8 8 7 7 7 8 7 7 8 10 10 9 9 10 11 12 13 13 12 12 12 12 13 13 13 13 13 12 12 12 12 12 12 12 12 13 13 14 14 14 14 12 12 13 14 14 15 15 15 16
13 15 15 16 16 16 17 17 17 17 17 18 18 18 18 19 19 18 18 17 17 17 17 17 16 16 16 15 14 13 13 12 11 11 10 9 9 8 8 9 9 9 9 10 10 10 9 9 10 11 12 12 12 12 12 12 12 12 13 13 13 13 13 13 13 14 13 13 12 12 13 13 14 14 14 14 13 13 13 13 13 14 15 15 16
12 14 15 15 16 16 15 15 16 16 17 17 17 18 18 19 19 19 18 18 17 17 17 17 17 17 17 16 15 14 13 12 12 11 10 10 9 9 9 9 10 11 11 11 11 11 11 10 11 11 12 13 13 13 13 13 13 13 13 14 14 14 14 14 15 15 14 13 13 13 13 13 13 13 13 13 13 14 13 13 13 13 14 14 15
12 13 14 15 16 16 16 16 16 17 17 17 17 18 18 18 19 19 19 19 18 18 17 17 18 18 17 16 15 14 13 13 12 12 11 10 10 10 10 10 11 13 13 12 12 13 13 12 12 12 13 13 14 14 14 14 14 14 14 15 15 15 15 16 15 14 14 13 13 13 13 13 13 13 13 13 13 13 13 13 13 13 13 14 14
Wind_Direction
350 352 353 350 343 336 332 324 312 298 288 282 277 275 275 272 269 268 265 262 260 258 257 256 256 255 253 253 252 251 250 250 249 246 243 241 239 238 238 237 235 236 236 236 236 237 237 239 241 241 241 241 242 242 241 242 242 242 242 241 241 241 241 244 250 253 250 246 234 226 226 221 214 214 218 221 224 227 230 231 229 230 233 240 250
346 344 346 350 351 345 336 330 325 316 303 291 283 280 278 276 274 269 264 261 258 256 255 256 257 256 254 253 252 252 251 250 250 247 243 242 240 239 239 237 236 235 235 236 236 236 237 238 240 240 240 240 241 241 241 240 239 240 240 239 240 239 237 239 245 250 246 238 231 225 221 217 214 214 218 222 224 225 227 227 228 230 234 242 252
347 344 343 345 350 351 348 341 332 325 317 307 297 290 285 280 276 269 264 262 258 255 253 253 254 253 253 252 251 251 250 249 248 246 244 243 242 241 240 238 236 235 234 235 236 236 236 237 239 239 239 239 240 239 239 239 238 239 239 238 238 238 237 237 241 246 248 242 231 222 218 216 216 216 217 221 223 224 226 227 227 229 235 245 253
348 349 348 346 347 351 354 354 347 337 329 320 312 304 297 289 281 273 269 265 261 258 255 252 251 250 249 249 249 249 249 248 246 245 245 245 244 243 243 240 238 236 236 236 236 235 235 236 238 239 238 238 239 239 239 238 238 238 240 240 238 238 237 236 238 243 248 247 234 223 219 216 215 216 216 217 220 223 225 227 228 232 239 247 254
346 348 350 348 349 352 354 355 352 346 338 330 322 315 308 300 293 286 280 275 269 263 259 255 252 250 249 250 250 249 250 249 247 246 246 246 245 244 244 243 240 239 238 238 237 236 235 236 238 238 238 238 238 239 238 238 238 238 239 239 239 239 237 236 237 240 243 245 235 218 213 211 211 214 215 215 217 221 225 228 231 236 243 249 254
344 344 347 347 349 351 350 349 348 346 343 339 333 326 317 309 301 294 288 283 278 271 264 259 255 253 253 253 252 252 252 251 249 249 248 247 246 245 245 244 242 240 239 238 238 237 237 237 238 238 237 237 238 239 239 239 239 238 238 238 238 238 237 235 235 235 237 240 235 218 208 208 209 210 214 217 218 219 223 229 234 239 245 250 254
340 340 342 343 345 345 343 343 344 344 344 342 340 336 332 326 318 308 297 287 280 276 271 265 261 258 257 255 254 253 253 252 251 251 249 248 247 246 245 244 242 241 240 239 238 238 238 238 238 238 238 239 240 240 240 240 239 239 238 237 236 235 235 234 232 231 231 233 233 221 210 210 211 212 215 217 219 222 225 230 236 240 245 251 255
336 336 337 338 340 339 336 336 337 337 339 341 341 339 335 332 327 322 314 303 292 285 279 275 271 267 262 259 257 255 254 253 252 251 249 248 247 247 246 244 242 242 242 241 239 238 238 238 239 240 240 242 243 243 242 241 239 239 239 238 235 232 232 231 228 226 226 226 226 220 211 209 209 210 212 213 217 223 227 230 237 244 249 255 260
332 332 332 332 333 333 333 333 331 328 329 331 334 334 333 332 329 324 318 312 306 299 291 286 281 275 270 264 260 257 255 254 254 252 250 249 247 247 246 244 242 241 241 242 240 239 239 239 240 242 244 246 247 247 246 244 241 240 239 237 233 229 228 227 223 221 220 221 221 215 208 206 204 203 205 210 216 222 226 230 237 245 252 259 266
330 329 328 329 329 331 333 334 330 326 324 323 324 325 326 328 328 325 321 316 311 307 300 292 287 281 276 270 265 260 258 257 256 254 252 251 250 248 246 244 243 241 239 239 239 239 240 241 243 245 247 248 248 249 250 249 246 245 242 238 232 227 224 221 220 218 215 216 216 210 206 206 204 205 209 215 220 222 222 224 230 238 249 263 275
328 327 327 328 330 334 336 334 329 325 323 322 321 319 319 322 324 324 323 320 316 312 304 295 289 285 280 275 270 265 262 262 260 256 254 253 251 248 246 244 243 241 239 238 239 239 240 242 244 246 248 249 250 251 252 252 250 247 244 241 236 232 226 220 217 216 214 216 216 212 211 212 210 211 213 215 218 219 217 216 221 230 238 253 272
327 327 327 329 333 336 336 333 329 326 324 323 321 317 314 316 320 320 319 319 317 313 307 299 292 288 282 277 273 269 268 266 263 259 256 255 251 247 245 243 242 241 240 239 239 238 238 241 244 246 250 252 252 252 251 251 249 247 246 242 239 236 232 226 221 217 214 216 216 215 215 216 213 212 212 212 212 213 214 215 220 228 233 237 248
328 327 328 332 336 336 333 330 328 326 325 324 323 321 316 313 315 315 313 312 310 308 307 303 296 291 284 279 276 274 272 270 265 261 259 256 249 244 243 242 241 242 242 240 239 237 236 238 241 246 250 252 251 250 250 250 248 245 245 244 240 236 234 231 229 226 222 220 220 220 220 218 215 214 215 216 212 208 209 215 222 228 233 240 250
330 329 333 336 334 331 329 327 326 326 325 324 322 319 315 312 311 311 309 307 305 304 305 303 299 296 289 282 280 278 277 274 268 263 261 258 248 239 239 241 242 243 243 241 240 238 237 237 237 242 248 249 248 249 249 247 244 241 239 239 237 234 232 231 229 228 227 225 224 225 225 222 219 217 218 218 214 210 211 217 223 229 237 247 259
330 334 337 333 329 328 328 327 324 322 320 318 315 312 311 310 311 311 308 304 301 301 302 303 303 299 293 287 282 280 280 278 272 266 262 260 250 236 233 236 239 241 242 241 240 239 239 238 235 238 243 246 248 248 247 245 242 237 234 233 232 230 228 227 225 224 225 225 226 227 227 226 223 219 218 216 215 217 219 223 231 237 246 256 267
334 338 334 328 326 329 329 325 321 318 318 317 315 314 313 313 314 314 309 304 300 296 296 304 307 302 295 289 282 280 283 282 275 270 265 260 248 233 228 230 233 236 238 238 237 236 236 236 235 235 237 241 246 247 246 244 239 234 231 229 228 226 226 226 224 222 222 224 226 227 226 226 223 218 217 215 216 221 224 231 238 238 246 263 272
338 335 330 327 328 329 327 324 320 319 320 320 319 318 317 316 318 318 312 307 303 296 294 304 310 306 298 290 283 281 284 284 278 272 268 259 242 227 224 224 228 233 235 234 233 233 233 234 236 235 234 237 244 247 246 242 235 231 228 225 223 223 225 224 221 221 223 223 224 224 222 222 220 218 220 223 228 231 225 227 233 230 232 247 265
335 333 331 329 327 327 327 325 323 321 321 321 320 320 320 319 320 320 317 311 306 302 302 307 311 309 301 294 288 283 284 285 281 274 269 259 240 225 221 219 222 230 233 232 230 230 233 236 237 236 235 237 243 247 244 238 231 227 224 220 218 219 220 219 217 218 220 221 221 220 217 218 222 224 226 228 235 238 234 232 233 226 222 227 243
334 333 331 328 325 326 327 326 324 323 322 322 322 322 322 321 320 320 318 313 309 309 312 311 310 309 305 298 292 286 286 286 282 276 270 259 239 224 219 216 217 225 228 227 225 226 230 235 236 236 237 240 243 245 242 235 230 227 222 216 214 216 218 218 216 214 214 216 218 218 218 220 224 227 228 227 231 238 241 242 238 227 226 233 241
334 332 330 327 326 328 329 328 327 326 324 324 323 323 324 322 321 321 318 315 313 313 313 311 310 309 307 301 294 289 288 287 284 278 270 257 238 224 218 216 216 218 221 221 218 218 223 228 232 234 236 239 242 242 239 234 231 228 220 213 214 218 218 218 217 216 214 214 216 219 220 223 226 230 232 232 232 235 240 243 243 238 237 241 243
333 331 330 328 328 329 331 331 330 329 328 327 325 325 325 324 323 322 318 314 312 311 310 311 312 312 311 306 299 294 291 289 286 281 272 259 242 227 221 220 219 217 218 218 216 215 217 222 228 234 236 238 241 240 236 231 229 227 220 218 222 223 217 214 215 215 213 212 213 216 220 224 228 231 234 236 235 236 239 244 247 246 245 246 245
333 331 330 329 330 331 333 334 332 330 330 330 327 324 325 325 325 323 319 313 311 312 314 316 316 314 314 313 307 300 296 295 293 287 278 265 246 230 224 225 224 221 218 217 215 215 218 223 230 236 237 237 238 237 231 225 223 224 224 224 225 219 212 212 210 206 207 208 209 212 216 221 226 229 232 236 237 237 240 244 248 250 251 253 251
332 331 330 330 331 332 333 332 332 332 332 331 329 326 326 327 327 326 325 322 321 323 322 322 321 318 316 317 315 308 302 300 300 296 288 274 252 233 228 230 228 224 222 220 216 217 221 226 232 237 237 237 235 231 225 217 215 221 225 223 216 207 205 207 204 199 202 203 204 208 212 216 222 227 232 237 239 240 241 243 248 251 253 256 257
331 331 331 330 331 332 332 332 333 333 333 333 332 329 329 330 329 330 332 331 330 330 327 325 325 322 317 319 321 315 307 304 305 304 298 285 263 241 232 232 231 227 225 225 223 221 222 226 232 235 235 232 227 223 217 210 210 217 222 217 208 200 199 201 199 197 198 199 201 205 210 215 221 227 234 241 244 245 247 248 250 253 255 259 262
330 331 331 330 331 331 331 332 334 335 335 336 335 332 331 331 331 331 333 334 334 334 330 326 324 320 316 318 322 319 311 308 308 307 304 296 277 252 237 232 230 227 225 226 225 221 222 226 230 232 231 223 213 209 208 207 208 213 216 208 200 197 196 195 193 192 193 195 199 204 210 217 225 232 239 245 246 247 249 250 252 255 259 263 267
330 331 330 330 331 331 330 332 334 336 336 335 335 334 333 332 331 329 331 335 338 336 331 328 325 322 317 317 319 317 312 310 310 307 305 303 289 265 243 232 229 226 223 223 219 213 214 220 223 224 219 207 200 201 203 204 204 206 208 202 196 196 195 191 189 190 193 195 200 206 212 219 227 233 237 239 241 244 246 249 252 258 262 265 269
331 331 330 330 330 330 331 332 333 334 335 335 335 335 334 334 332 329 330 335 339 337 331 327 325 323 322 322 321 316 310 310 311 309 307 306 297 281 257 236 228 223 217 212 205 201 203 209 214 214 203 194 196 200 202 201 199 199 200 199 197 198 197 195 194 196 197 199 203 210 214 217 223 227 231 235 240 243 246 250 255 260 264 265 266
331 330 330 330 331 331 331 331 331 331 333 334 335 335 334 334 332 329 329 332 335 335 331 324 320 321 324 327 325 318 310 310 311 310 309 306 298 287 268 242 229 221 211 199 192 195 201 200 198 196 192 189 190 194 197 197 197 197 197 197 198 199 198 198 200 202 204 205 209 212 213 215 221 226 231 235 241 247 251 254 257 260 260 257 255
332 331 330 331 332 333 332 331 330 330 330 332 334 334 334 333 330 328 328 332 336 337 333 325 319 319 321 323 324 323 320 317 312 310 312 308 297 286 274 250 231 222 212 199 191 189 189 185 183 183 184 184 182 183 186 188 190 194 196 196 196 197 197 198 201 204 206 207 209 211 211 213 220 226 230 237 246 253 256 255 255 255 251 245 248
332 331 332 332 332 333 331 330 330 330 329 329 331 332 335 336 334 330 330 334 337 338 339 336 328 320 317 319 321 321 320 317 311 309 313 310 290 277 272 253 230 219 211 202 194 187 180 177 179 181 181 181 180 181 182 181 184 189 191 193 194 196 199 202 204 205 206 207 209 211 212 213 219 225 231 241 250 254 254 254 253 250 246 245 251
332 330 331 331 331 332 330 328 329 330 329 330 330 331 333 336 338 335 334 335 335 334 337 343 344 335 321 317 320 319 316 318 318 315 315 307 280 267 263 251 232 217 207 198 189 181 176 174 175 179 180 181 182 184 184 184 185 185 185 188 194 198 201 205 207 207 209 210 211 213 216 219 225 231 237 244 249 251 252 251 248 246 247 249 254
332 329 329 328 330 331 329 328 329 330 329 330 332 333 332 332 334 336 338 340 339 334 331 338 348 349 338 322 324 326 321 323 327 325 320 306 278 261 256 249 232 214 203 194 182 175 175 174 174 178 180 182 185 186 186 186 187 186 184 186 191 198 204 207 209 210 212 214 217 220 224 228 233 237 240 242 246 248 247 244 242 243 249 254 259
333 330 329 328 328 330 330 330 330 329 329 330 332 333 332 330 329 330 334 338 341 338 332 330 341 350 348 335 330 332 329 329 331 329 326 314 283 251 238 235 219 201 196 190 177 172 176 177 178 181 182 184 188 189 188 187 187 189 192 194 197 203 209 213 214 215 217 221 226 229 231 234 236 238 241 243 245 246 244 242 243 247 251 257 261
336 333 331 329 328 330 331 331 329 327 328 331 331 329 329 329 327 327 329 333 337 341 340 333 335 343 345 341 335 333 334 337 336 332 332 327 296 235 213 216 200 191 192 189 177 176 180 180 182 186 188 191 193 192 191 192 193 195 200 206 210 213 216 218 220 222 223 226 229 231 233 236 237 239 244 245 245 245 244 244 246 249 251 255 259
339 336 333 332 331 331 331 330 327 325 326 329 330 327 326 328 329 328 327 327 329 334 336 335 335 337 339 341 342 337 335 337 338 340 345 339 282 192 194 200 180 179 188 194 184 181 185 186 188 193 195 197 198 196 195 197 200 203 205 208 211 215 218 220 223 226 227 227 228 231 233 237 240 243 246 245 242 242 244 246 249 251 254 257 261
341 337 335 334 332 331 331 329 326 325 324 325 327 327 327 328 328 327 326 324 325 327 328 329 333 335 334 336 342 342 338 336 339 346 354 344 185 164 177 206 176 176 189 199 189 187 194 198 200 201 201 200 201 200 200 202 205 207 209 209 209 211 216 220 222 224 226 227 231 235 237 239 241 242 241 242 242 243 246 251 253 254 256 260 263
343 337 335 335 334 332 331 329 326 325 324 325 327 328 328 328 327 326 326 325 324 325 327 328 332 336 337 337 340 339 335 337 340 348 1 357 174 164 161 218 182 185 196 203 199 201 207 209 208 206 204 205 206 206 206 207 206 206 206 207 208 212 219 223 224 225 228 231 234 238 240 241 242 240 237 240 244 246 250 254 256 257 261 264 266
343 338 337 337 336 334 331 328 326 325 325 326 329 330 327 326 327 327 326 325 323 324 326 327 329 334 338 340 337 329 322 329 337 344 351 263 195 188 202 282 203 198 203 207 212 219 218 215 212 209 207 209 211 212 211 209 207 206 204 205 209 216 224 230 231 231 234 236 236 236 239 241 241 239 239 242 247 251 255 256 258 261 264 265 265
344 342 341 340 338 335 331 327 324 325 326 326 328 328 327 326 328 327 326 324 323 324 324 324 324 328 331 333 333 325 314 311 305 295 295 268 225 218 248 272 246 220 212 212 214 221 224 219 214 214 215 215 216 216 215 212 211 211 211 211 213 217 222 227 231 232 235 238 237 236 238 241 242 243 245 248 252 256 257 258 259 261 264 266 267
343 343 344 344 341 336 332 328 326 326 327 325 325 327 328 328 328 327 324 323 322 322 323 321 321 323 325 325 326 322 312 306 298 274 253 257 250 236 246 262 256 237 225 220 218 220 224 222 220 220 221 221 220 220 219 217 215 217 219 220 220 220 223 229 235 237 240 242 239 237 238 242 246 248 250 253 256 259 261 264 265 266 267 270 273
343 343 344 344 341 336 332 330 328 329 328 327 326 327 326 325 325 323 321 320 319 321 321 319 319 322 323 322 324 321 308 304 306 287 255 253 255 245 245 255 255 248 239 231 226 226 225 224 227 227 224 224 226 224 220 219 218 219 222 224 225 226 231 235 239 243 245 244 240 238 241 246 249 251 253 257 260 261 263 266 268 269 272 275 278
346 348 345 341 338 335 332 329 329 329 329 328 327 326 322 320 320 320 319 319 320 321 321 319 319 323 323 321 323 322 305 297 308 304 276 263 260 255 253 253 253 253 247 238 235 235 231 227 228 229 228 229 229 224 220 219 218 220 224 225 226 230 236 240 243 244 245 245 243 242 244 248 251 254 257 260 262 263 265 267 270 273 276 278 280
351 351 344 338 334 333 331 329 329 329 328 327 327 326 324 321 321 320 320 321 321 322 322 320 321 324 324 322 323 323 310 298 310 312 296 280 271 267 266 265 262 258 253 245 241 240 238 236 234 232 234 236 232 227 226 223 221 223 228 231 233 235 237 241 244 243 241 244 247 247 249 252 253 255 258 261 262 264 267 270 272 276 278 279 280
353 348 341 337 335 333 332 331 330 329 328 327 326 327 326 324 323 323 323 323 323 323 323 322 321 323 324 323 322 321 313 307 312 313 303 293 284 277 274 275 270 262 257 253 247 241 242 245 241 236 236 237 234 231 231 231 229 230 234 238 241 241 239 241 245 246 245 247 249 252 254 255 255 257 261 263 264 267 270 272 275 278 280 281 281
352 343 335 335 335 334 332 331 330 329 329 328 326 326 326 325 324 323 323 323 322 321 321 321 321 321 323 323 321 318 312 307 307 309 305 298 291 285 282 278 269 261 258 256 249 242 240 241 240 237 236 237 237 236 236 236 237 237 239 241 243 246 246 245 246 249 252 256 257 259 259 258 259 262 265 266 268 270 273 276 279 281 282 282 282
350 342 334 333 334 334 332 331 330 330 330 329 326 326 326 325 323 323 322 321 321 321 320 320 320 321 322 323 321 317 313 306 300 300 301 297 291 287 285 279 271 266 261 254 247 244 239 235 236 239 240 243 246 248 245 242 242 241 240 239 241 245 247 245 245 251 258 261 262 262 262 263 266 269 269 270 272 272 274 279 282 282 282 283 284
347 340 335 334 334 333 332 332 330 330 331 330 328 326 325 323 323 322 322 321 321 321 321 321 320 320 320 321 319 316 314 309 302 297 296 294 290 282 275 271 269 268 263 254 251 253 250 243 241 245 250 255 259 259 253 247 243 240 239 238 239 243 246 248 253 260 263 262 261 261 261 264 269 271 272 274 273 272 275 279 281 282 284 285 288
343 336 334 335 334 332 331 331 330 329 329 329 327 325 324 323 322 321 321 321 323 323 321 320 320 319 319 320 318 314 310 306 302 296 291 290 288 280 270 265 262 258 254 257 263 269 270 264 260 259 262 265 266 262 256 249 242 237 236 235 235 240 248 255 262 266 265 263 261 258 259 264 268 269 272 275 275 275 278 280 281 283 285 285 288
342 333 331 333 333 331 328 327 326 326 326 326 325 324 324 323 321 320 320 320 321 322 321 320 320 320 320 319 319 315 309 304 300 296 291 288 285 279 272 269 267 262 256 258 267 276 277 274 273 271 268 267 265 258 253 250 244 239 238 238 239 246 254 260 266 269 268 264 260 258 260 264 265 266 270 274 276 278 282 284 285 286 286 285 287
339 332 329 328 328 329 328 326 325 326 327 326 325 324 323 322 321 321 320 319 318 320 321 321 321 320 318 316 316 315 311 304 299 297 295 291 287 282 276 270 270 271 265 261 266 275 276 274 274 273 270 269 266 260 255 252 249 245 245 247 250 255 261 265 269 270 266 261 259 260 262 264 266 267 269 272 274 279 283 287 289 291 291 291 294
336 333 331 326 323 326 329 327 326 327 328 326 324 323 322 321 319 318 318 318 317 317 319 320 320 318 315 314 315 315 311 304 298 296 294 291 286 281 274 268 270 275 275 269 267 271 274 274 273 270 267 267 266 264 261 258 254 252 252 254 257 261 266 269 269 267 262 258 259 261 263 265 268 269 271 273 276 281 286 289 292 294 295 296 297
Height
775 773 772 770 769 768 767 766 765 765 764 764 764 764 764 764 764 764 763 763 764 764 764 764 764 764 765 765 766 766 767 768 769 770 771 772 773 774 775 776 777 778 779 780 782 783 784 785 787 789 791 792 793 794 796 798 799 800 801 801 802 803 804 804 802 801 802 803 803 804 804 805 807 808 809 810 810 811 812 813 814 814 815 816 816
776 774 772 771 769 767 766 765 764 764 763 763 763 763 763 762 762 762 762 762 762 762 761 761 761 762 762 762 762 763 764 765 766 767 767 768 769 770 771 772 773 774 775 776 777 778 780 781 782 784 786 787 789 790 792 794 795 796 797 798 798 799 801 802 801 799 799 800 800 801 802 803 804 805 806 806 807 808 809 810 811 811 812 813 813
777 775 773 771 769 767 766 765 764 763 763 762 762 762 761 761 761 761 760 760 760 759 759 759 759 759 759 759 759 760 760 761 762 762 763 764 765 766 767 768 768 769 770 771 773 775 776 777 778 780 782 783 784 786 788 789 791 791 792 793 794 795 797 799 799 797 797 797 797 798 799 800 800 801 803 804 805 805 806 807 808 809 809 810 810
777 775 773 771 769 768 766 765 764 763 762 762 761 761 760 760 760 759 759 758 758 757 757 757 756 756 756 756 756 757 757 757 758 758 759 759 760 761 762 763 764 765 766 768 769 771 772 773 774 776 778 779 780 782 784 785 787 788 788 790 791 791 793 795 795 796 796 796 795 795 795 796 797 798 799 800 801 802 803 804 805 806 806 807 807
777 775 773 771 769 768 767 765 764 763 762 761 760 760 759 758 758 757 756 756 755 755 755 754 754 754 753 753 753 754 754 755 755 755 755 756 756 757 758 759 760 761 762 764 765 767 768 769 771 773 775 776 777 778 780 781 782 783 785 786 787 789 790 791 792 793 794 793 793 793 793 793 794 795 796 797 798 799 800 801 802 803 803 804 804
777 775 773 772 770 769 768 766 765 763 762 761 760 759 758 757 756 755 754 753 752 752 752 751 751 751 750 751 751 751 751 751 751 751 752 752 753 754 755 756 756 757 759 760 761 763 764 765 767 769 770 771 773 774 776 777 778 779 780 781 783 785 786 787 788 789 790 791 791 791 791 791 791 792 793 794 795 796 797 798 799 800 800 801 801
777 775 773 772 770 769 768 766 765 763 762 760 759 758 756 755 754 753 752 751 750 750 749 749 748 748 748 748 748 748 748 748 748 748 749 750 750 751 752 752 753 754 755 756 758 759 760 761 763 764 766 767 769 771 772 773 774 775 776 778 779 781 782 783 784 785 786 787 788 788 788 788 789 789 790 792 793 794 795 796 796 797 797 797 798
776 774 773 771 770 769 767 766 764 762 761 759 758 756 755 753 752 751 750 749 748 747 746 746 746 745 745 745 745 745 745 745 745 745 746 747 747 748 748 749 750 751 752 753 755 756 757 758 759 760 762 763 765 767 768 769 770 771 772 774 775 777 778 779 781 782 782 784 784 784 785 785 786 787 788 789 790 791 792 793 793 794 795 795 795
775 773 772 770 769 767 766 764 763 761 759 758 756 754 753 751 750 748 747 746 745 744 744 743 743 742 742 742 742 742 742 741 741 742 743 744 744 745 745 746 747 748 749 750 751 752 753 755 756 757 759 760 762 763 764 765 767 767 768 770 771 773 774 776 777 778 779 779 780 781 782 781 782 783 784 785 786 787 789 790 791 791 792 792 793
774 772 771 769 768 766 765 763 761 760 758 756 754 752 751 749 748 746 745 743 742 741 741 741 740 740 739 739 739 738 738 738 738 739 740 740 741 742 742 743 744 745 746 747 748 749 750 751 752 754 755 757 758 759 760 761 762 763 765 766 768 769 770 771 772 773 774 775 775 776 777 776 777 778 779 781 783 785 786 787 788 789 790 790 790
773 771 770 768 767 765 763 762 760 758 756 754 752 751 749 747 746 744 743 742 740 739 738 737 737 736 736 735 735 735 734 734 735 735 736 737 738 738 739 740 741 742 743 744 745 746 747 748 749 751 752 753 755 755 756 757 758 760 761 762 763 764 765 766 766 768 769 770 770 771 771 772 773 775 777 779 781 782 783 785 786 787 788 789 789
773 771 769 767 766 764 762 760 758 756 754 752 751 749 747 746 744 743 742 740 739 738 736 735 734 733 733 732 731 731 730 731 731 732 733 734 734 735 735 736 737 738 739 740 741 743 744 745 746 748 749 749 750 751 752 753 754 756 757 758 759 759 760 761 762 764 765 765 766 767 767 769 771 772 774 776 778 780 781 782 784 785 786 787 787
773 771 769 767 765 763 762 759 757 755 753 751 749 747 746 744 743 741 740 738 737 736 734 733 732 731 730 729 728 727 727 727 728 729 730 730 731 732 732 733 734 735 736 737 738 740 741 743 743 744 745 746 747 747 748 749 750 752 753 754 754 755 756 758 759 760 762 763 764 764 765 767 769 769 771 773 775 777 779 780 782 783 784 784 784
772 770 768 767 765 763 762 759 757 755 753 751 749 747 745 743 741 739 738 736 735 733 732 731 730 729 727 726 726 725 724 724 725 726 726 727 728 729 729 730 731 732 733 734 735 737 738 739 740 741 742 742 743 744 745 746 747 748 749 749 750 751 752 754 756 757 759 761 762 763 764 766 766 767 769 771 773 774 776 777 779 780 781 781 781
772 770 768 767 765 763 760 758 756 754 751 750 747 745 743 741 739 737 735 734 732 731 730 729 727 727 725 724 724 722 722 722 722 723 723 724 725 726 726 727 728 729 730 731 732 733 735 736 737 738 739 739 740 741 742 743 744 745 746 746 746 747 748 750 752 754 757 759 760 762 763 764 765 767 768 770 771 772 774 775 777 778 779 779 779
773 771 769 767 764 762 760 757 754 752 749 747 745 742 741 739 737 735 733 731 730 728 728 727 726 724 723 722 721 720 719 720 719 720 720 721 722 723 724 724 725 725 726 727 728 730 731 733 734 735 736 736 737 739 740 741 742 742 743 743 744 745 745 747 750 752 754 756 758 760 762 763 764 765 767 768 770 771 773 774 775 776 777 777 776
773 771 769 766 763 761 759 756 753 751 748 746 743 741 739 737 735 734 732 730 728 726 726 725 724 723 721 720 719 718 717 717 717 717 718 718 719 720 721 722 722 723 723 724 726 727 728 729 731 732 733 734 735 736 737 738 739 739 740 741 742 743 743 746 748 750 752 754 756 758 760 761 763 764 766 767 768 769 770 771 772 773 774 775 774
773 771 768 766 763 760 758 755 752 750 747 745 742 740 738 736 734 733 731 728 727 725 724 724 723 721 720 718 717 716 715 715 715 715 716 716 717 717 718 719 720 720 721 722 723 724 725 726 728 729 730 731 732 733 734 735 736 736 737 738 740 741 742 744 746 748 750 752 754 756 758 759 761 762 764 765 766 766 767 767 769 770 771 772 772
772 770 767 765 762 759 757 754 752 749 747 744 742 740 738 735 733 731 730 727 726 724 723 722 721 720 718 717 716 715 714 714 714 714 714 714 715 715 716 716 717 717 718 719 720 721 722 724 725 726 727 728 729 730 731 732 733 734 735 736 737 738 739 741 743 745 747 749 751 753 755 757 758 760 761 762 763 763 764 765 767 768 768 769 770
772 770 767 764 761 758 756 754 751 749 746 744 741 739 737 735 732 730 728 726 725 724 722 721 720 718 717 716 715 714 713 712 712 712 712 713 713 713 713 714 714 714 715 716 717 718 720 721 722 723 724 726 727 728 728 729 730 731 733 734 734 735 737 739 741 743 745 747 748 750 753 755 756 757 758 760 761 761 762 763 764 765 766 766 767
771 768 765 762 760 757 755 753 750 748 746 743 741 738 736 734 732 729 727 725 724 722 721 720 719 717 716 714 713 712 712 711 710 710 710 711 711 712 712 712 712 713 713 713 714 715 717 718 719 721 722 723 724 725 726 727 728 729 730 731 732 734 736 738 739 741 743 745 747 748 750 752 753 755 756 757 758 759 760 760 761 762 763 763 764
770 767 764 761 758 756 754 752 750 747 744 742 740 737 735 733 731 728 726 724 722 721 720 719 718 716 714 713 712 711 710 710 709 709 709 709 709 710 710 710 711 712 712 712 713 713 715 716 717 718 719 720 721 722 724 725 726 727 728 729 731 733 735 736 738 740 742 744 745 746 747 749 750 751 753 754 755 756 757 758 758 759 760 760 761
769 766 763 760 757 755 753 751 748 746 743 741 739 736 734 732 730 728 726 724 722 721 720 718 717 715 714 712 711 710 709 709 708 708 708 708 708 708 709 709 710 711 711 711 712 713 713 715 716 717 718 719 719 720 722 723 724 725 726 728 730 732 734 735 737 739 740 742 743 744 745 746 747 748 750 751 752 753 755 756 756 757 757 758 758
769 766 763 760 757 754 752 750 748 745 743 741 738 736 733 731 729 728 726 724 722 720 719 718 717 715 713 712 711 710 709 708 708 707 707 707 707 707 708 708 709 709 710 710 711 712 713 714 715 715 716 717 717 718 720 721 723 723 725 727 729 731 732 733 735 737 738 740 741 742 742 744 745 746 747 748 750 751 752 754 754 754 755 755 755
768 765 762 759 757 754 751 749 747 745 743 740 738 736 733 731 729 728 726 724 722 721 719 718 716 715 713 712 711 710 709 708 707 707 706 706 706 706 707 707 708 709 709 710 710 711 712 713 714 714 715 715 716 717 718 720 721 722 724 726 728 729 731 731 733 735 736 737 739 739 741 742 743 745 746 747 749 749 750 751 751 752 752 752 752
767 765 762 759 757 754 751 749 747 745 743 740 738 736 734 732 730 728 726 724 723 721 720 718 716 715 713 712 711 710 709 708 707 706 706 705 705 705 705 706 707 707 708 709 710 711 711 712 713 714 714 715 715 716 717 718 720 722 723 725 726 728 729 730 731 733 734 736 737 738 739 741 742 744 745 746 747 747 748 749 749 749 749 749 749
767 764 762 759 756 754 752 749 747 745 742 740 738 736 734 733 730 728 726 724 723 721 720 718 717 715 713 712 711 710 709 708 707 706 705 705 705 704 704 705 705 706 707 708 709 710 711 712 713 713 714 714 715 716 717 718 720 721 723 724 725 727 728 729 731 732 733 735 736 737 739 740 741 742 743 744 745 745 746 747 747 747 747 747 747
767 764 761 759 757 754 752 750 747 745 743 740 738 736 734 732 730 728 727 725 723 722 720 719 717 716 714 712 711 709 709 708 707 706 705 705 704 704 704 704 704 705 706 706 708 709 710 711 712 713 713 714 715 716 717 718 719 720 722 723 725 726 727 729 730 732 733 734 736 737 738 739 739 740 741 742 743 744 744 745 745 744 745 746 744
766 764 761 759 757 754 752 750 748 745 743 741 739 737 735 733 731 728 727 725 724 722 720 718 717 716 714 713 711 710 709 708 707 706 705 705 704 704 703 703 704 704 705 705 707 708 709 710 711 712 713 714 715 715 716 717 718 720 721 722 724 725 726 728 729 730 732 733 734 735 736 737 738 739 740 740 741 742 742 743 743 742 743 743 742
765 763 761 759 757 755 752 750 748 746 744 741 739 737 734 733 731 729 727 725 724 722 720 718 717 716 714 713 712 710 709 708 707 706 705 705 704 704 704 703 703 704 704 705 706 708 709 710 711 711 712 713 714 715 716 717 718 719 720 721 723 724 725 726 728 729 731 732 733 734 735 736 736 737 738 738 739 740 740 740 740 741 741 741 740
765 763 761 759 757 755 753 750 748 746 744 742 739 736 734 732 730 729 727 725 723 722 720 718 717 715 714 713 711 710 709 708 707 706 705 704 704 704 704 704 704 704 705 705 706 708 708 710 711 711 712 713 714 715 716 716 717 718 719 720 722 723 724 725 727 728 730 731 732 733 733 734 735 735 736 736 737 738 738 738 738 738 738 738 737
765 763 761 759 757 755 753 751 749 747 744 742 740 737 734 731 729 728 727 725 723 721 720 718 717 715 714 712 711 710 709 708 706 706 705 704 704 704 704 704 705 705 705 706 707 708 709 710 711 712 712 713 714 715 715 716 717 717 718 719 721 722 723 724 726 727 728 729 730 731 731 732 733 734 734 735 735 736 736 736 736 736 736 736 735
765 763 761 759 757 755 753 751 749 747 745 742 740 738 736 733 729 727 725 724 723 721 720 718 717 715 714 712 711 710 709 707 706 705 705 704 704 704 704 704 705 705 706 707 708 708 709 710 711 712 712 713 714 714 715 715 716 717 718 719 720 721 722 724 725 726 727 728 729 729 730 730 731 732 732 733 733 734 734 734 734 734 734 733 732
765 763 761 759 757 756 754 752 750 748 745 744 741 739 737 734 732 729 726 723 721 720 719 718 716 715 714 712 711 710 709 708 706 705 704 704 704 704 704 704 705 705 706 707 708 708 709 710 711 711 712 713 713 714 714 715 716 717 717 718 719 721 722 723 724 724 725 726 727 727 728 729 729 730 730 731 731 731 731 731 732 732 732 731 730
765 762 761 759 758 756 754 752 750 748 746 744 742 740 737 735 733 731 728 725 722 720 719 718 716 715 714 712 711 710 709 708 707 706 705 704 704 704 705 705 705 706 707 707 708 709 709 710 711 711 712 712 713 713 714 714 715 716 717 717 718 719 720 721 722 723 723 724 725 725 726 727 727 728 728 729 729 729 729 729 729 729 729 728 727
764 762 760 759 757 756 754 752 750 748 746 744 742 740 738 736 734 732 729 727 724 722 720 718 716 715 714 712 711 710 709 708 707 706 705 705 705 705 705 705 705 706 707 708 708 709 709 710 710 711 711 712 713 713 713 714 714 715 716 717 717 718 719 719 720 721 722 723 723 724 725 725 725 726 727 727 727 727 726 727 727 727 726 726 725
763 761 759 758 757 755 753 752 750 748 746 744 743 741 738 736 734 732 730 728 725 723 721 719 717 715 714 712 711 710 709 709 708 707 706 706 705 706 706 706 706 706 707 708 708 708 709 709 710 710 711 712 712 712 713 713 714 715 715 716 716 717 718 718 719 720 720 721 722 722 723 723 723 724 725 725 724 725 725 725 725 725 724 724 723
763 761 759 758 756 754 753 751 749 748 746 744 743 741 739 737 734 732 730 728 726 724 722 720 718 716 714 713 712 710 710 709 708 708 707 707 706 706 706 706 707 707 707 708 708 708 709 709 709 710 711 711 712 712 712 713 714 714 715 716 716 717 717 717 718 719 719 720 720 721 721 722 722 722 723 723 722 723 723 723 723 722 722 721 721
761 760 758 757 755 754 752 750 749 747 745 744 742 741 739 737 735 733 731 729 727 725 723 721 719 717 715 713 712 711 710 709 708 708 708 707 707 707 707 707 707 707 707 708 708 708 709 709 709 710 710 711 711 712 712 713 713 713 714 715 715 716 716 716 717 718 718 718 719 719 720 720 720 721 721 721 721 721 721 721 721 720 719 719 718
760 758 757 755 754 753 751 750 748 747 745 743 741 740 738 737 735 733 731 729 727 725 723 721 719 717 716 714 712 711 710 709 708 708 708 707 707 707 707 707 707 707 707 707 708 708 708 709 709 709 710 710 710 711 711 712 712 712 713 713 714 714 715 715 716 716 717 717 717 718 718 718 719 719 719 719 719 719 719 719 718 718 717 717 716
759 757 755 755 754 752 751 749 748 746 745 743 741 740 738 736 735 733 731 729 727 725 723 721 720 718 716 714 713 711 710 709 708 708 707 707 707 707 707 707 707 707 707 707 707 708 708 708 709 709 709 709 710 710 711 711 711 711 712 712 713 713 714 714 714 715 715 715 716 716 716 717 717 717 717 717 717 717 717 717 716 716 715 714 714
758 756 755 754 753 752 750 749 747 745 744 742 741 739 737 735 734 732 730 729 727 725 723 721 719 718 717 715 713 712 710 709 709 708 707 707 707 706 707 707 707 707 707 707 707 707 707 708 708 708 708 708 709 709 709 710 710 710 711 711 712 712 712 712 713 713 713 714 714 714 715 715 715 715 715 715 715 715 715 715 714 714 713 712 712
757 755 754 754 753 751 750 748 746 745 743 741 740 738 736 734 733 731 730 728 726 725 723 721 719 718 717 715 714 712 710 709 709 708 707 707 707 706 706 706 706 707 707 707 707 707 707 707 707 707 707 707 707 708 708 708 709 709 709 710 710 711 711 711 711 711 712 712 712 713 713 713 713 713 713 713 713 713 713 713 712 712 711 710 710
756 755 754 753 752 751 749 748 746 744 742 741 739 737 735 734 732 730 729 728 726 724 723 721 719 717 716 715 714 712 711 710 709 708 707 707 707 706 706 706 705 706 706 706 706 707 706 706 706 706 706 706 706 706 707 707 707 708 708 708 709 709 709 709 710 710 711 711 711 711 711 711 711 711 711 711 711 711 711 710 710 709 709 708 708
755 754 754 752 751 750 748 747 745 744 742 740 738 736 735 733 732 730 728 727 725 724 722 720 718 717 716 715 714 713 711 710 709 708 707 707 706 706 706 705 705 705 705 705 705 706 706 706 706 706 706 705 705 705 705 705 706 706 706 707 707 707 707 708 709 709 709 710 710 710 710 709 710 710 709 709 709 709 709 709 708 708 707 706 706
755 754 753 752 750 749 747 746 744 743 741 739 737 735 734 732 731 729 728 726 724 723 721 720 718 717 715 714 713 713 711 710 709 708 707 707 706 706 706 705 705 705 704 704 705 705 705 705 705 705 705 704 704 704 705 704 705 705 705 705 706 706 706 707 708 708 708 708 708 708 708 708 708 708 707 707 707 707 707 707 706 706 705 705 703
754 754 753 751 750 748 747 745 744 742 740 738 736 734 733 732 730 729 727 725 724 723 721 719 718 716 714 713 713 712 711 710 709 708 707 706 706 705 705 705 705 704 704 704 704 704 704 704 704 704 704 703 703 703 703 703 703 704 704 704 705 705 705 706 706 706 707 707 706 706 706 706 706 706 705 706 706 705 705 705 704 704 704 703 701
754 753 752 751 749 748 746 745 743 741 739 737 736 734 732 731 729 728 726 725 723 722 720 719 717 716 714 713 712 711 711 710 709 708 707 706 705 705 705 704 704 704 704 703 703 703 703 703 703 702 702 702 702 702 702 702 703 703 703 704 704 704 704 705 705 705 705 705 705 705 705 704 705 704 704 704 704 703 703 703 702 702 701 700 699
753 752 751 750 749 748 746 744 743 741 739 737 735 733 732 730 729 727 726 724 723 721 720 718 717 715 714 712 711 710 710 709 708 707 707 706 705 705 704 703 703 703 703 702 702 702 702 702 702 702 702 701 701 701 701 701 702 702 702 703 703 703 703 703 703 703 703 703 703 703 703 703 703 702 702 702 702 701 701 701 700 700 699 699 697
752 751 750 749 748 747 745 744 742 740 738 737 735 733 731 730 728 726 725 723 722 721 719 718 716 715 713 712 710 709 709 708 708 707 706 705 704 704 703 703 703 702 702 702 701 701 701 701 701 701 701 700 700 701 701 701 701 701 701 702 702 702 702 702 701 701 701 701 701 701 701 701 701 701 700 700 700 699 699 698 698 697 697 696 695
750 749 748 747 746 745 744 742 741 739 738 736 734 733 731 729 727 726 724 723 721 720 718 717 716 714 713 711 710 709 708 707 707 706 705 704 704 703 703 702 702 701 701 701 700 700 700 700 699 699 700 700 699 700 700 700 700 700 700 700 701 700 700 700 700 699 699 699 699 699 699 699 699 698 698 698 698 697 696 696 695 695 695 694 693